Terminal Aerodrome Forecast
Issued by NWS

Home | Current Version | Previous Version | Text Only | Print | Product List | Glossary On
Versions: 1 2 3 4 5 6 7 8 9 10 11 12 13 14 15 16 17 18 19
000
FTUS46 KPDT 211234 AAA
TAFRDM
TAF AMD
KRDM 211234Z 2113/2212 16011KT P6SM -RA OVC025
      TEMPO 2114/2118 4SM -RA BR OVC020
     FM212200 22015G25KT P6SM VCSH BKN050 BKN100
     FM220200 20022G32KT P6SM SCT050 BKN100=

USA.gov is the U.S. government's official web portal to all federal, state and local government web resources and services.